Burns Flat, OK

7:56 PM CST on February 06, 2016 (GMT -0600)
Clinton-Sherman

Weather History for KCSM - November, 2012

Change the Weather History Date:

Sunday, November 4, 2012

  Actual Average Record
Temperature  
Mean Temperature 52 °F -  
Max Temperature 66 °F 60 °F 88 °F (2005)
Min Temperature 37 °F 42 °F 30 °F (2011)
Degree Days  
Heating Degree Days 14    
Growing Degree Days 2 (Base 50)    
Moisture  
Dew Point 33 °F    
Average Humidity 53    
Maximum Humidity 79    
Minimum Humidity 28    
Precipitation  
Precipitation 0.00 in - - ()
Sea Level Pressure  
Sea Level Pressure 30.16 in    
Wind  
Wind Speed 6 mph (East)    
Max Wind Speed 9 mph    
Max Gust Speed -    
Visibility 10 miles    
Events      
Averages and records for this station are not official NWS values.
T = Trace of Precipitation, MM = Missing Value Source: NWS Daily Summary

Daily Weather History Graph

Daily Weather History Graph

Search for Another Location

Airport or City:

Trip Planner

Search our weather history database for the weather conditions in past years. The results will help you decide how hot, cold, wet, or windy it might be!

Date:

Astronomy

Nov. 04, 2012 Rise Set
Actual Time 7:01 AM CST 5:38 PM CST
Civil Twilight 6:35 AM CST 6:05 PM CST
Nautical Twilight 6:05 AM CST 6:35 PM CST
Astronomical Twilight 5:35 AM CST 7:05 PM CST
Moon 10:19 PM CST (11/4) 11:44 AM CST (11/4)
Length of Visible Light 11h 29m
Length of Day
10h 36m
Waning Gibbous, 72% of the Moon is Illuminated
Nov 4
Waning Gibbous
Nov 6
Last Quarter
Nov 13
New
Nov 20
First Quarter
Nov 28
Full

Hourly Weather History & Observations

Time (CST) Temp. Windchill Dew Point Humidity Pressure Visibility Wind Dir Wind Speed Gust Speed Precip Events Conditions
12:53 AM 46.0 °F 41.9 °F 34.0 °F 63% 30.20 in 10.0 mi North 8.1 mph - N/A   Clear
1:53 AM 44.1 °F 39.5 °F 33.1 °F 65% 30.19 in 10.0 mi North 8.1 mph - N/A   Clear
1:53 AM 42.1 °F 37.1 °F 33.1 °F 70% 30.20 in 10.0 mi North 8.1 mph - N/A   Clear
2:53 AM 41.0 °F 37.1 °F 33.1 °F 73% 30.20 in 10.0 mi NNW 5.8 mph - N/A   Clear
3:53 AM 41.0 °F 35.8 °F 33.1 °F 73% 30.20 in 10.0 mi North 8.1 mph - N/A   Clear
4:53 AM 39.0 °F 35.7 °F 32.0 °F 76% 30.21 in 10.0 mi NNW 4.6 mph - N/A   Clear
5:53 AM 37.0 °F 34.5 °F 30.9 °F 79% 30.22 in 10.0 mi NNW 3.5 mph - N/A   Clear
6:53 AM 37.9 °F 31.5 °F 30.9 °F 76% 30.23 in 10.0 mi North 9.2 mph - N/A   Clear
7:53 AM 44.1 °F 42.5 °F 35.1 °F 71% 30.23 in 10.0 mi North 3.5 mph - N/A   Clear
8:53 AM 50.0 °F - 34.0 °F 54% 30.23 in 10.0 mi NNE 4.6 mph - N/A   Clear
9:53 AM 54.0 °F - 34.0 °F 47% 30.22 in 10.0 mi ESE 4.6 mph - N/A   Clear
10:53 AM 57.9 °F - 34.0 °F 41% 30.22 in 10.0 mi ESE 3.5 mph - N/A   Clear
11:53 AM 62.1 °F - 33.1 °F 34% 30.18 in 10.0 mi Calm Calm - N/A   Clear
12:53 PM 63.0 °F - 33.1 °F 33% 30.14 in 10.0 mi SSW 4.6 mph - N/A   Clear
1:53 PM 64.9 °F - 32.0 °F 29% 30.12 in 10.0 mi South 4.6 mph - N/A   Clear
2:53 PM 66.0 °F - 32.0 °F 28% 30.09 in 10.0 mi SW 5.8 mph - N/A   Clear
3:53 PM 66.0 °F - 32.0 °F 28% 30.07 in 10.0 mi South 6.9 mph - N/A   Clear
4:53 PM 62.1 °F - 34.0 °F 35% 30.07 in 10.0 mi SSE 6.9 mph - N/A   Clear
5:53 PM 57.9 °F - 33.1 °F 39% 30.10 in 10.0 mi SSE 4.6 mph - N/A   Clear
6:53 PM 54.0 °F - 34.0 °F 47% 30.10 in 10.0 mi SSE 4.6 mph - N/A   Clear
7:53 PM 52.0 °F - 33.1 °F 49% 30.10 in 10.0 mi SSE 5.8 mph - N/A   Clear
8:53 PM 48.9 °F - 34.0 °F 56% 30.09 in 10.0 mi SSE 9.2 mph - N/A   Clear
9:53 PM 48.9 °F - 33.1 °F 54% 30.10 in 10.0 mi South 5.8 mph - N/A   Clear